This is the latest recevied weather packets stored in our database for station/object LU4EGV-13. If no packets are shown the sender has not sent any weather packets the latest 10 day(s).
| Time | Temp. | Humidity | Pressure | Rain* | Wind** | Luminosity | Snow |
|---|---|---|---|---|---|---|---|
| 1787852468 | 15.56° C | 77% | 1003.6 hPa | 0 mm | - | - | - |
| 1787851858 | 15.56° C | 80% | 1003 hPa | 0 mm | - | - | - |
| 1787851253 | 15.56° C | 80% | 1002.8 hPa | 0 mm | - | - | - |
| 1787850656 | 16.11° C | 80% | 1001.9 hPa | 0 mm | - | - | - |
| 1787850043 | 16.11° C | 84% | 1001 hPa | 0 mm | - | - | - |
| 1787849447 | 14.44° C | 88% | 1002.3 hPa | 0 mm | - | - | - |
| 1787848835 | 14.44° C | 88% | 1003.3 hPa | 0 mm | - | - | - |
| 1787848234 | 13.89° C | 89% | 1003.1 hPa | 0 mm | - | - | - |
| 1787847623 | 13.33° C | 89% | 1003.4 hPa | 0 mm | - | - | - |
| 1787847008 | 12.78° C | 88% | 1003.3 hPa | 0 mm | - | - | - |
| 1787846403 | 12.78° C | 87% | 1004.5 hPa | 0 mm | - | - | - |
| 1787845796 | 12.78° C | 86% | 1005.7 hPa | 0 mm | - | - | - |
| 1787845191 | 13.33° C | 85% | 1005.5 hPa | 0 mm | - | - | - |
| 1787844584 | 13.33° C | 84% | 1006.2 hPa | 0 mm | - | - | - |
| 1787843979 | 13.33° C | 83% | 1006.1 hPa | 0 mm | - | - | - |
| 1787843371 | 13.89° C | 83% | 1006 hPa | 0 mm | - | - | - |
| 1787843184 | 13.89° C | 84% | 1005.1 hPa | 0 mm | - | - | - |
| 1787843155 | 13.89° C | 83% | 1005.9 hPa | 0 mm | - | - | - |
| 1787843125 | 13.89° C | 84% | 1005.7 hPa | 0 mm | - | - | - |
| 1787843109 | 13.89° C | 83% | 1006.1 hPa | 0 mm | - | - | - |
| 1787842981 | 13.33° C | 84% | 1004.9 hPa | 0 mm | - | - | - |
| 1787839736 | 13.33° C | 84% | 1005.6 hPa | 0 mm | - | - | - |
| 1787839128 | 13.33° C | 84% | 1005.5 hPa | 0 mm | - | - | - |
| 1787838522 | 13.33° C | 85% | 1005.2 hPa | 0 mm | - | - | - |
| 1787837916 | 13.33° C | 85% | 1004.6 hPa | 0 mm | - | - | - |
* Rain latest hour (hover to see other rain measurements)
** Current wind speed in m/s (hover to see current wind gust speed)